Вернуться в каталог

SL-16 DEB

АктивенLEO
NORAD 22397·DEBRIS·🇷🇺 Russia

Запущен Dec 25, 1992 с Baikonur Cosmodrome

Loading…

Ближайшие Пролёты (ближайшие 24 часа)

TLE

СвежийSource: Space-Track

Эпоха: Sep 14, 2026, 11:00 UTC

1 22397U 92093CN  26257.45841793  .00000899  00000-0  35290-3 0  9997
2 22397  70.7995 282.8820 0032424  55.2048 305.2126 14.31822568742597

Отслеживайте SL-16 DEB в реальном времени с AllMySat

Download on the App Store